Flag for Australia Weather past 2 weeks in Geraldton, Western Australia, Australia

Now
49 °F

Overcast.


Feels Like: 47 °F
Forecast: 54 / 68 °F
Wind: 6 mph from Southeast

Location: Geraldton Airport

Current Time: Sep 23, 2014 at 5:01:21 AM

Latest Report: Sep 23, 2014 at 3:00 AM


Visibility: N/A

Pressure: 30.27 "Hg

Humidity: 92%

Dew point: 47 °F

Location of GeraldtonLocation

Historic Weather in Geraldton — Graph

°F

Geraldton temperature yesterday

Maximum temperature yesterday: 65 °F (at 2:00 PM)
Minimum temperature yesterday: 51 °F (at 9:00 PM)
Average temperature yesterday: 58 °F

Past Weeks' High & Low Weather Summary

 TemperatureHumidityPressure
High85 °F (Sep 16, 12:00 PM)98% (Sep 20, 12:00 AM)30.29 "Hg (Sep 20, 12:00 AM)
Low46 °F (Sep 15, 6:00 AM)13% (Sep 15, 12:00 PM)29.77 "Hg (Sep 21, 9:00 AM)
Average63 °F72%30.07 "Hg
* Reported Sep 8 3:00 AM — Sep 23 3:00 AM, Geraldton, Weather by CustomWeather, © 2014

Note: Actual official high and low records may vary slightly from our data, if they occured in-between our weather recording intervals... More about our weather records

Advertising

Geraldton weather history for previous 24 hours

 ConditionsComfort  
Time TempWeatherWind HumidityBarometerVisibility
3:00 AM
Sep 23
49 °FOvercast.6 mph92%30.27 "HgN/A
2:00 AM52 °FCool.3 mph93%30.27 "HgN/A
12:00 AM50 °FOvercast.7 mph91%30.29 "HgN/A
11:00 PM
Sep 22
52 °FCool.8 mph88%30.28 "HgN/A
9:00 PM51 °FPassing clouds.7 mph88%30.29 "Hg19 mi
8:00 PM52 °FCool.6 mph88%30.27 "HgN/A
6:00 PM60 °FPassing clouds.10 mph64%30.23 "Hg19 mi
5:00 PM63 °FMild.15 mph50%30.22 "HgN/A
3:00 PM64 °FScattered clouds.16 mph49%30.20 "Hg19 mi
2:00 PM65 °FMild.16 mph45%30.19 "HgN/A
12:00 PM64 °FPartly sunny.12 mph55%30.21 "Hg19 mi
11:00 AM62 °FMild.12 mph60%30.22 "HgN/A
9:00 AM56 °FOvercast.7 mph90%30.22 "Hg16 mi
8:00 AM56 °FCool.2 mph85%30.19 "HgN/A
6:00 AM54 °FOvercast.8 mph84%30.14 "Hg19 mi
5:00 AM54 °FCool.7 mph91%30.11 "HgN/A
Weather by CustomWeather, © 2014

See weather overviewHow to use our weather pages